Weather reports worldwide

Advertisment
Bezier-Vias, France (7638): temperature & dewpoint: 09.12.2018 07:00:00 - 15.12.2018 07:00:00 (CET)Bezier-Vias, France (7638): wind speed & gusts: 09.12.2018 07:00:00 - 15.12.2018 07:00:00 (CET)Bezier-Vias, France (7638): wind direction: 09.12.2018 07:00:00 - 15.12.2018 07:00:00 (CET)Bezier-Vias, France (7638): reduced air pressure: 09.12.2018 07:00:00 - 15.12.2018 07:00:00 (CET)Bezier-Vias, France (7638): visibility: 09.12.2018 07:00:00 - 15.12.2018 07:00:00 (CET)Bezier-Vias, France (7638): precipitation: 09.12.2018 07:00:00 - 15.12.2018 07:00:00 (CET)
Date & Time tt [°C] td [°C] ff [km/h] ff [kn] fx [km/h] fx [kn] dd ppp [hPa] vv [km] rr [mm]
15.12.2018 07:00:00 - - - - - - - - - -
15.12.2018 06:00:00 1,7 -3,8 4 2 13 7 ENE 1020,9 60 0,0
15.12.2018 05:00:00 3,3 -4,0 8 5 25 13 NNE 1020,5 60 0,0
15.12.2018 04:00:00 5,4 -3,9 12 7 21 12 NW 1020,6 60 0,0
15.12.2018 03:00:00 5,2 -2,6 17 9 24 13 W 1021,0 60 0,0
15.12.2018 02:00:00 5,7 -1,7 10 5 24 13 W 1020,7 60 0,0
15.12.2018 01:00:00 7,0 -4,1 15 8 47 25 W 1020,6 60 0,0
15.12.2018 00:00:00 5,2 -5,2 14 8 31 17 W 1020,6 60 0,0
14.12.2018 23:00:00 6,9 -5,8 15 8 54 29 NNW 1020,0 60 0,0
14.12.2018 22:00:00 7,9 -4,6 35 19 61 33 WNW 1019,8 60 0,0
14.12.2018 21:00:00 7,8 -2,0 25 13 38 21 W 1019,2 60 0,0
14.12.2018 20:00:00 7,6 -0,4 21 11 35 19 W 1018,6 60 0,0
14.12.2018 19:00:00 5,7 0,5 6 4 24 13 WSW 1018,6 60 0,0
14.12.2018 18:00:00 7,0 0,6 10 5 29 15 NNW 1018,0 60 0,0
14.12.2018 17:00:00 9,2 2,3 23 12 44 24 W 1017,1 60 0,0
14.12.2018 16:00:00 11,2 3,9 18 10 38 21 W 1016,5 60 0,0
14.12.2018 15:00:00 12,2 4,4 10 6 27 14 NW 1015,7 58 0,0
14.12.2018 14:00:00 11,3 4,5 16 8 31 17 NNW 1015,5 60 0,0
14.12.2018 13:00:00 11,7 6,6 8 4 18 10 NW 1015,4 60 0,0
14.12.2018 12:00:00 10,7 7,6 12 6 20 11 WSW 1015,7 58 0,0
14.12.2018 11:00:00 10,0 8,1 16 9 22 12 NW 1015,8 27 0,0
14.12.2018 10:00:00 7,7 6,9 8 4 20 11 WNW 1015,2 13 0,0
14.12.2018 09:00:00 5,9 5,0 3 2 11 6 W 1014,3 17 0,0
14.12.2018 08:00:00 6,5 5,6 4 2 11 6 WNW 1013,7 43 0,0
14.12.2018 07:00:00 6,2 5,3 7 4 10 5 W 1013,2 51 0,0
14.12.2018 06:00:00 6,5 5,6 8 4 13 7 NNW 1012,8 56 0,4
14.12.2018 05:00:00 6,5 5,6 8 5 16 9 NW 1012,8 25 0,2
14.12.2018 04:00:00 6,6 5,5 6 3 20 11 N 1012,5 40 0,2
14.12.2018 03:00:00 6,5 5,4 8 4 14 7 N 1012,5 37 0,4
14.12.2018 02:00:00 6,5 5,4 11 6 20 11 NNW 1012,2 15 0,4
14.12.2018 01:00:00 6,6 5,5 15 8 23 13 NNW 1011,8 14 1,5
14.12.2018 00:00:00 6,7 5,6 15 8 24 13 NNW 1011,5 6 1,6
13.12.2018 23:00:00 6,8 5,4 14 7 30 16 N 1010,6 10 0,6
13.12.2018 22:00:00 6,6 5,4 18 10 28 15 NNE 1009,8 18 0,8
13.12.2018 21:00:00 6,6 5,2 20 11 36 20 NE 1008,9 9 1,0
13.12.2018 20:00:00 6,6 5,1 24 13 42 23 NE 1008,0 6 0,4
13.12.2018 19:00:00 6,8 5,1 29 16 48 26 NE 1006,9 12 0,2
13.12.2018 18:00:00 6,8 5,6 26 14 44 24 NE 1006,4 14 0,0
13.12.2018 17:00:00 6,7 5,8 25 13 35 19 NNE 1005,9 5 1,8
13.12.2018 16:00:00 6,5 5,6 22 12 38 21 NE 1006,1 3,1 2,4
13.12.2018 15:00:00 6,2 5,2 23 12 37 20 NNE 1006,0 3,2 1,4
13.12.2018 14:00:00 6,8 4,3 22 12 32 17 NE 1006,6 9 0,2
13.12.2018 13:00:00 7,5 3,0 19 10 32 17 NNE 1007,4 38 0,0
13.12.2018 12:00:00 7,1 2,0 19 10 33 18 NE 1008,2 39 0,0
13.12.2018 11:00:00 6,4 1,7 - - - - - 1009,0 20 0,0
13.12.2018 10:00:00 5,3 1,2 14 8 23 12 NNE 1009,6 33 0,0
13.12.2018 09:00:00 4,7 1,0 14 8 25 14 NNE 1010,3 33 0,0
13.12.2018 08:00:00 4,3 0,8 13 7 22 12 NNE 1010,4 36 0,0
13.12.2018 07:00:00 3,9 1,1 11 6 19 10 NE 1010,8 30 0,0
13.12.2018 06:00:00 3,5 1,5 10 6 14 8 NNE 1011,3 23 0,0
13.12.2018 05:00:00 3,4 1,1 11 6 20 11 NE 1012,1 24 0,0
13.12.2018 04:00:00 2,7 1,4 13 7 18 10 NE 1012,9 23 0,0
13.12.2018 03:00:00 2,1 1,1 8 4 15 8 E 1013,6 18 0,0
13.12.2018 02:00:00 2,9 1,9 13 7 23 12 NE 1013,7 18 0,0
13.12.2018 01:00:00 2,8 1,5 3 2 12 7 WSW 1014,5 20 0,0
13.12.2018 00:00:00 3,3 2,0 4 2 13 7 N 1015,2 30 0,0
12.12.2018 23:00:00 3,8 2,3 10 6 14 7 NW 1015,9 31 0,0
12.12.2018 22:00:00 5,0 3,3 3 2 9 5 N 1016,2 20 0,0
12.12.2018 21:00:00 5,9 3,6 3 2 17 9 NE 1016,6 20 0,0
12.12.2018 20:00:00 7,2 5,7 11 6 13 7 N 1016,9 15 0,0
12.12.2018 19:00:00 8,5 7,0 4 2 11 6 WNW 1016,9 19 0,0
12.12.2018 18:00:00 8,4 6,7 4 2 9 5 WSW 1016,5 17 0,0
12.12.2018 17:00:00 8,7 6,8 8 4 10 5 ENE 1017,2 17 0,0
12.12.2018 16:00:00 9,7 6,6 2 1 10 5 SSW 1017,3 19 0,2
12.12.2018 15:00:00 9,9 4,9 4 2 11 6 WSW 1017,7 13 0,2
12.12.2018 14:00:00 10,2 2,8 9 5 21 12 SW 1018,4 52 0,0
12.12.2018 13:00:00 11,5 1,4 13 7 22 12 SSW 1018,7 38 0,0
12.12.2018 12:00:00 11,9 1,8 4 2 9 5 E 1019,3 52 0,0
12.12.2018 11:00:00 8,9 3,3 2 1 13 7 E 1020,2 45 0,0
12.12.2018 10:00:00 4,3 3,0 4 2 7 4 N 1020,4 32 0,0
12.12.2018 09:00:00 1,3 0,1 5 3 11 6 W 1020,6 27 0,0
12.12.2018 08:00:00 1,0 -0,3 4 2 12 7 WNW 1020,3 16 0,0
12.12.2018 07:00:00 1,4 -0,1 5 3 7 4 WNW 1020,0 35 0,0
12.12.2018 06:00:00 1,9 0,3 5 3 8 4 NNW 1020,0 29 0,0
12.12.2018 05:00:00 2,1 0,5 3 1 9 5 WNW 1020,5 31 0,0
12.12.2018 04:00:00 1,8 0,3 3 1 12 7 NNW 1020,9 22 0,0
12.12.2018 03:00:00 1,8 0,6 12 6 14 8 NNW 1021,2 19 0,0
12.12.2018 02:00:00 1,0 -0,2 9 5 11 6 N 1021,1 18 0,0
12.12.2018 01:00:00 1,4 0,1 3 1 6 4 NE 1021,2 11 0,0
12.12.2018 00:00:00 1,6 0,1 2 1 5 3 WSW 1021,2 15 0,0
11.12.2018 23:00:00 2,5 0,7 3 1 6 3 ENE 1021,0 17 0,0
11.12.2018 22:00:00 2,9 0,8 5 3 9 5 NNW 1020,9 19 0,0
11.12.2018 21:00:00 3,8 1,0 6 3 17 9 NE 1020,9 24 0,0
11.12.2018 20:00:00 5,2 1,5 3 1 7 4 NNE 1020,6 19 0,0
11.12.2018 19:00:00 5,4 1,1 3 2 8 5 WSW 1020,2 27 0,0
11.12.2018 18:00:00 7,1 1,0 5 3 8 4 WNW 1020,1 39 0,0
11.12.2018 17:00:00 11,0 0,7 5 3 9 5 WSW 1019,9 19 0,0
11.12.2018 16:00:00 12,7 0,4 6 3 10 5 WSW 1019,8 56 0,0
11.12.2018 15:00:00 13,7 -1,1 4 2 16 9 WNW 1020,2 53 0,0
11.12.2018 14:00:00 12,7 -0,9 6 4 17 9 W 1021,0 42 0,0
11.12.2018 13:00:00 12,2 -1,7 10 6 18 10 W 1022,0 60 0,0
11.12.2018 12:00:00 11,2 0,9 9 5 16 9 NW 1022,9 49 0,0
11.12.2018 11:00:00 9,8 1,2 10 5 16 9 WNW 1023,4 42 0,0
11.12.2018 10:00:00 6,6 2,9 9 5 16 9 W 1023,7 45 0,0
11.12.2018 09:00:00 3,8 1,7 4 2 14 8 WSW 1023,8 42 0,0
11.12.2018 08:00:00 4,0 0,7 10 5 22 12 WSW 1024,0 51 0,0
11.12.2018 07:00:00 3,5 0,7 15 8 20 11 WNW 1023,9 58 0,0
11.12.2018 06:00:00 5,9 0,0 10 5 26 14 WNW 1024,5 60 0,0
11.12.2018 05:00:00 7,9 0,8 21 11 35 19 NNW 1024,7 60 0,0
11.12.2018 04:00:00 7,3 1,6 16 8 29 16 N 1025,2 60 0,0
11.12.2018 03:00:00 5,7 1,6 18 10 23 12 N 1025,7 60 0,0
11.12.2018 02:00:00 3,5 0,7 5 3 9 5 N 1025,9 40 0,0
11.12.2018 01:00:00 5,9 1,2 5 3 15 8 SSE 1026,2 43 0,0
11.12.2018 00:00:00 6,0 0,3 4 2 9 5 N 1026,7 60 0,0
10.12.2018 23:00:00 7,6 1,6 6 3 25 13 NNW 1027,4 60 0,0
10.12.2018 22:00:00 8,5 1,6 21 11 37 20 WNW 1027,5 59 0,0
10.12.2018 21:00:00 9,0 1,6 20 11 28 15 WNW 1027,9 60 0,0
10.12.2018 20:00:00 8,4 1,8 15 8 33 18 WNW 1027,9 55 0,0
10.12.2018 19:00:00 10,2 1,6 18 10 31 17 WSW 1028,0 59 0,0
10.12.2018 18:00:00 10,8 1,3 18 10 49 27 NW 1028,0 60 0,0
10.12.2018 17:00:00 11,1 2,1 20 11 44 24 NNW 1027,7 60 0,0
10.12.2018 16:00:00 12,7 2,0 27 15 59 32 NW 1027,9 29 0,0
10.12.2018 15:00:00 13,3 1,6 37 20 57 31 NNW 1028,1 31 0,0
10.12.2018 14:00:00 13,5 1,5 39 21 55 30 NNW 1028,4 35 0,0
10.12.2018 13:00:00 13,8 2,4 31 17 48 26 NNW 1029,0 41 0,0
10.12.2018 12:00:00 13,3 1,3 27 15 48 26 NNW 1029,9 51 0,0
10.12.2018 11:00:00 13,1 2,6 27 15 43 23 NW 1030,6 60 0,0
10.12.2018 10:00:00 12,2 2,9 14 8 33 18 NW 1030,6 52 0,0
10.12.2018 09:00:00 10,9 2,7 16 8 40 21 WNW 1029,9 52 0,0
10.12.2018 08:00:00 10,5 1,6 25 14 40 22 NW 1029,1 60 0,0
10.12.2018 07:00:00 11,4 2,7 26 14 50 27 NW 1028,6 60 0,0
10.12.2018 06:00:00 11,3 2,6 31 17 43 23 NW 1028,3 60 0,0
10.12.2018 05:00:00 11,5 3,0 25 13 52 28 WNW 1028,4 60 0,0
10.12.2018 04:00:00 12,0 3,2 35 19 51 28 WNW 1028,2 60 0,0
10.12.2018 03:00:00 11,7 3,5 11 6 35 19 W 1028,5 60 0,0
10.12.2018 02:00:00 12,4 4,4 18 10 30 16 W 1028,1 60 0,0
10.12.2018 01:00:00 12,6 3,3 14 7 48 26 W 1028,2 60 0,0
10.12.2018 00:00:00 12,6 3,3 24 13 50 27 NW 1027,9 60 0,0
09.12.2018 23:00:00 12,5 4,9 18 10 43 23 W 1026,9 52 0,0
09.12.2018 22:00:00 12,5 4,5 32 17 53 28 WNW 1026,3 57 0,0
09.12.2018 21:00:00 12,8 3,7 31 17 75 41 WNW 1026,2 56 0,0
09.12.2018 20:00:00 13,9 3,4 46 25 82 44 NW 1024,9 54 0,0
09.12.2018 19:00:00 14,2 3,9 44 24 76 41 NW 1023,8 45 0,0
09.12.2018 18:00:00 13,5 4,9 31 17 51 27 NW 1023,2 46 0,0
09.12.2018 17:00:00 14,0 4,8 27 14 71 38 NW 1022,7 57 0,0
09.12.2018 16:00:00 15,0 4,7 49 26 80 43 NW 1021,9 22 0,0
09.12.2018 15:00:00 15,5 6,5 46 25 81 44 WNW 1021,1 39 0,0
09.12.2018 14:00:00 15,8 7,0 51 28 85 46 WNW 1021,1 20 0,0
09.12.2018 13:00:00 15,6 6,0 48 26 87 47 W 1021,4 19 0,0
09.12.2018 12:00:00 15,3 6,6 32 17 62 33 W 1021,9 20 0,0
09.12.2018 11:00:00 15,4 6,7 35 19 65 35 W 1021,7 19 0,0
09.12.2018 10:00:00 15,0 6,8 26 14 58 31 W 1021,8 43 0,0
09.12.2018 09:00:00 14,8 5,8 34 18 55 30 W 1022,0 58 0,0
09.12.2018 08:00:00 14,5 7,5 24 13 50 27 W 1021,6 60 0,0
09.12.2018 07:00:00 14,6 6,7 27 14 60 33 W 1021,7 60 0,0

tt = temperature
td = dewpoint
ff = wind speed
fx = gusts
dd = wind direction
ppp = reduced air pressure
vv = visibility
rr = precipitation

Next stations